Palmer, AK

8:07 AM AKST on February 11, 2016 (GMT -0900)
Palmer Municipal

Weather History for PAAQ - March, 2013

Change the Weather History Date:

Saturday, March 9, 2013

  Actual Average Record
Temperature  
Mean Temperature 36 °F -  
Max Temperature 39 °F 31 °F 49 °F (1965)
Min Temperature 32 °F 13 °F -20 °F (1971)
Degree Days  
Heating Degree Days 30    
Moisture  
Dew Point 25 °F    
Average Humidity 67    
Maximum Humidity 92    
Minimum Humidity 53    
Precipitation  
Precipitation 0.00 in - - ()
Sea Level Pressure  
Sea Level Pressure 29.95 in    
Wind  
Wind Speed 11 mph (East)    
Max Wind Speed 23 mph    
Max Gust Speed -    
Visibility 9 miles    
Events Snow    
Averages and records for this station are not official NWS values.
T = Trace of Precipitation, MM = Missing Value Source: NWS Daily Summary

Daily Weather History Graph

Daily Weather History Graph

Search for Another Location

Airport or City:

Trip Planner

Search our weather history database for the weather conditions in past years. The results will help you decide how hot, cold, wet, or windy it might be!

Date:

Astronomy

Mar. 09, 2013 Rise Set
Actual Time 7:31 AM AKST 6:43 PM AKST
Civil Twilight 6:47 AM AKST 7:27 PM AKST
Nautical Twilight 5:56 AM AKST 8:18 PM AKST
Astronomical Twilight 5:03 AM AKST 9:12 PM AKST
Moon 6:28 AM AKST (3/9) 4:36 PM AKST (3/9)
Length of Visible Light 12h 39m
Length of Day
11h 12m
Waning Crescent, 5% of the Moon is Illuminated
Mar 9
Waning Crescent
Mar 11
New
Mar 19
First Quarter
Mar 27
Full
Apr 2
Last Quarter

Hourly Weather History & Observations

Time (AKST) Temp. Windchill Dew Point Humidity Pressure Visibility Wind Dir Wind Speed Gust Speed Precip Events Conditions
12:53 AM 37.9 °F 28.2 °F 24.1 °F 57% 29.78 in 10.0 mi SE 18.4 mph - N/A   Overcast
1:53 AM 35.1 °F 25.2 °F 28.0 °F 76% 29.81 in 10.0 mi SE 16.1 mph - N/A   Scattered Clouds
2:53 AM 35.1 °F 23.3 °F 30.0 °F 82% 29.82 in 10.0 mi SE 23.0 mph - N/A   Overcast
3:53 AM 35.1 °F 28.6 °F 28.0 °F 76% 29.83 in 10.0 mi East 8.1 mph - N/A   Overcast
4:53 AM 36.0 °F 29.6 °F 25.0 °F 64% 29.84 in 10.0 mi ENE 8.1 mph - N/A   Overcast
5:53 AM 35.1 °F 29.3 °F 27.0 °F 72% 29.85 in 10.0 mi ENE 6.9 mph - N/A   Overcast
6:53 AM 34.0 °F 26.6 °F 24.1 °F 67% 29.86 in 10.0 mi NNE 9.2 mph - N/A   Overcast
7:53 AM 35.1 °F 28.6 °F 24.1 °F 64% 29.88 in 10.0 mi NE 8.1 mph - N/A   Overcast
8:53 AM 32.0 °F 24.2 °F 21.0 °F 64% 29.88 in 10.0 mi North 9.2 mph - N/A   Overcast
9:53 AM 33.1 °F 25.5 °F 21.0 °F 61% 29.90 in 10.0 mi North 9.2 mph - N/A   Overcast
10:53 AM 33.1 °F 25.5 °F 21.0 °F 61% 29.91 in 10.0 mi North 9.2 mph - N/A   Mostly Cloudy
11:53 AM 35.1 °F 30.1 °F 21.0 °F 57% 29.93 in 10.0 mi North 5.8 mph - N/A   Overcast
12:53 PM 37.9 °F 32.7 °F 21.9 °F 53% 29.94 in 10.0 mi North 6.9 mph - N/A   Overcast
1:53 PM 39.0 °F 33.4 °F 25.0 °F 57% 29.94 in 10.0 mi ESE 8.1 mph - N/A   Overcast
2:53 PM 39.0 °F 31.8 °F 23.0 °F 53% 29.95 in 10.0 mi SE 11.5 mph - N/A   Overcast
3:53 PM 39.0 °F 31.8 °F 24.1 °F 55% 29.96 in 10.0 mi SE 11.5 mph - N/A   Overcast
4:53 PM 37.9 °F 30.5 °F 24.1 °F 57% 29.97 in 10.0 mi SE 11.5 mph - N/A   Overcast
5:53 PM 37.9 °F 31.5 °F 23.0 °F 55% 29.99 in 10.0 mi SE 9.2 mph - N/A   Overcast
6:53 PM 36.0 °F 27.5 °F 24.1 °F 62% 30.00 in 10.0 mi SSE 12.7 mph - N/A   Overcast
7:53 PM 35.1 °F 31.0 °F 24.1 °F 64% 30.02 in 10.0 mi East 4.6 mph - N/A   Overcast
8:53 PM 34.0 °F 28.8 °F 23.0 °F 64% 30.04 in 10.0 mi SSE 5.8 mph - N/A   Overcast
9:53 PM 33.1 °F - 24.1 °F 70% 30.06 in 10.0 mi Calm Calm - N/A   Overcast
10:36 PM 33.8 °F 30.8 °F 26.6 °F 75% 30.06 in 3.0 mi East 3.5 mph - 0.00 in Snow Light Snow
10:45 PM 32.0 °F - 28.4 °F 87% 30.07 in 2.5 mi Calm Calm - 0.00 in Snow Light Snow
10:53 PM 32.0 °F - 28.9 °F 88% 30.09 in 2.5 mi Calm Calm - 0.00 in Snow Light Snow
10:58 PM 32.0 °F - 28.4 °F 87% 30.07 in 3.0 mi Calm Calm - 0.00 in Snow Light Snow
11:53 PM 32.0 °F - 30.0 °F 92% 30.10 in 8.0 mi Calm Calm - 0.00 in   Overcast